This demonstration page uses our WeatherBlox Daily Observations layout. Learn more.

Left ArrowRight Arrow

39.51506, -84.39828

Hourly Observations for August 9, 2022

Temp ( °F °C ) Dew Point ( °F °C ) Humidity (%) Winds ( mph kmh ) Pressure ( in mb ) Visibility ( mi km ) Precip ( " mm )
12:15 am 00:15 Partly Cloudy with Nearby Thunderstorms 78 25.4 77 24.8 96 96 SW 7 11 29.97 1015 10 16 0.00 0.00
12:35 am 00:35 Mostly Cloudy 79 26.2 76 24.3 89 89 W 6 9 29.98 1015 10 16 0.00 0.00
12:55 am 00:55 Cloudy 78 25.6 76 24.4 93 93 Calm 29.98 1015 10 16 0.00 0.00
1:15 am 01:15 Partly Cloudy 77 25 76 24.7 98 98 SSW 3 6 29.99 1016 10 16 0.00 0.00
1:35 am 01:35 Partly Cloudy 76 24.3 75 24 98 98 WSW 3 6 30.00 1016 10 16 0.00 0.00
1:55 am 01:55 Mostly Cloudy 76 24.6 N/A N/A SW 5 7 29.98 1015 10 16 0.00 0.00
2:15 am 02:15 Cloudy with Thunderstorms 76 24.7 75 23.8 95 95 WSW 12 19 29.99 1016 10 16 0.00 0.00
2:35 am 02:35 Cloudy with Strong Thunderstorms 75 23.8 74 23.3 97 97 WSW 13 20 30.00 1016 5 8 0.00 0.00
2:55 am 02:55 Cloudy with Thunderstorms 74 23.1 N/A N/A WSW 6 9 29.99 1015 7 11 0.00 0.00
3:15 am 03:15 Mostly Cloudy with Light Rain 73 23 N/A N/A S 3 6 29.98 1015 10 16 0.00 0.00
3:35 am 03:35 Mostly Cloudy with Light Rain 73 23 N/A N/A Calm 29.98 1015 7 11 0.00 0.00
3:55 am 03:55 Mostly Cloudy 73 23 N/A N/A S 8 13 29.99 1015 10 16 0.00 0.00
4:15 am 04:15 Partly Cloudy 73 22.8 N/A N/A SSW 7 11 30.00 1016 10 16 0.00 0.00
4:35 am 04:35 Clear 73 22.7 N/A N/A SSW 5 7 30.00 1016 10 16 0.00 0.00
4:55 am 04:55 Clear 72 22.4 N/A N/A SW 6 9 29.99 1016 10 16 0.00 0.00
5:15 am 05:15 Clear 72 22.2 N/A N/A Calm 29.99 1016 10 16 0.00 0.00
5:35 am 05:35 Partly Cloudy 71 21.9 N/A N/A S 7 11 29.99 1016 10 16 0.00 0.00
5:55 am 05:55 Partly Cloudy 72 22.3 N/A N/A S 6 9 30.00 1016 10 16 0.00 0.00
6:15 am 06:15 Clear 72 22 N/A N/A SW 3 6 30.01 1016 10 16 0.00 0.00
6:35 am 06:35 Hazy 71 21.7 N/A N/A Calm 30.01 1016 5 8 0.00 0.00
6:55 am 06:55 Hazy 71 21.4 N/A N/A W 3 6 30.01 1016 5 8 0.00 0.00
7:15 am 07:15 Hazy 71 21.7 N/A N/A W 3 6 30.02 1017 5 8 0.00 0.00
7:35 am 07:35 Mostly Cloudy 72 22.4 N/A N/A Calm 30.03 1017 10 16 0.00 0.00
7:55 am 07:55 Cloudy 73 22.8 N/A N/A Calm 30.03 1017 10 16 0.00 0.00
8:15 am 08:15 Cloudy 73 23 N/A N/A WNW 3 6 30.04 1017 10 16 0.00 0.00
8:35 am 08:35 Cloudy 74 23.3 N/A N/A Calm 30.04 1017 10 16 0.00 0.00
8:55 am 08:55 Cloudy 74 23.4 73 23 98 98 Calm 30.05 1018 10 16 0.00 0.00
9:15 am 09:15 Mostly Cloudy 76 24.2 75 23.7 97 97 Calm 30.03 1017 10 16 0.00 0.00
9:35 am 09:35 Mostly Cloudy 77 25 75 23.8 93 93 Calm 30.03 1017 10 16 0.00 0.00
9:55 am 09:55 Cloudy 78 25.3 75 24.1 93 93 S 5 7 30.03 1017 10 16 0.00 0.00
10:15 am 10:15 Cloudy 78 25.8 76 24.7 94 94 W 5 7 30.03 1017 10 16 0.00 0.00
10:35 am 10:35 Mostly Cloudy 80 26.4 76 24.2 88 88 WSW 5 7 30.03 1017 10 16 0.00 0.00
10:55 am 10:55 Mostly Cloudy 80 26.7 76 24.2 86 86 W 7 11 30.03 1017 10 16 0.00 0.00
11:15 am 11:15 Mostly Cloudy 82 27.6 76 24.6 84 84 SW 6 9 30.03 1017 10 16 0.00 0.00
11:35 am 11:35 Cloudy 82 27.6 77 24.9 85 85 WSW 7 11 30.03 1017 10 16 0.00 0.00
11:55 am 11:55 Cloudy 83 28.6 76 24.3 78 78 W 8 13 30.02 1017 10 16 0.00 0.00
12:15 pm 12:15 Cloudy 82 28 75 24 79 79 WNW 6 9 30.03 1017 10 16 0.00 0.00
12:35 pm 12:35 Cloudy 82 27.8 75 24 80 80 W 6 9 30.03 1017 10 16 0.00 0.00
12:55 pm 12:55 Cloudy 82 27.6 74 23.3 77 77 NW 9 15 30.03 1017 10 16 0.00 0.00
1:15 pm 13:15 Cloudy 83 28.6 74 23.4 74 74 NW 6 9 30.02 1017 10 16 0.00 0.00
1:35 pm 13:35 Cloudy with Rain 79 26.3 76 24.3 89 89 WNW 8 13 30.04 1017 7 11 0.00 0.00
1:55 pm 13:55 Mostly Cloudy 80 26.4 78 25.3 94 94 NNW 8 13 30.03 1017 10 16 0.00 0.00
2:15 pm 14:15 Cloudy 80 26.6 76 24.4 88 88 NNW 6 9 30.02 1017 10 16 0.00 0.00
2:35 pm 14:35 Cloudy 81 27.2 75 24 83 83 N 5 7 30.02 1017 10 16 0.00 0.00
2:55 pm 14:55 Mostly Cloudy with Nearby Thunderstorms 81 27.1 75 23.7 82 82 NNW 3 6 30.00 1016 10 16 0.00 0.00
3:15 pm 15:15 Mostly Cloudy 81 27.1 74 23.5 81 81 Calm 30.00 1016 10 16 0.00 0.00
3:35 pm 15:35 Partly Cloudy 81 27 75 23.7 82 82 S 3 6 30.00 1016 10 16 0.00 0.00
3:55 pm 15:55 Partly Cloudy 81 27 75 23.8 83 83 WSW 6 9 29.99 1016 10 16 0.00 0.00
4:15 pm 16:15 Partly Cloudy 81 27.1 75 24 83 83 SW 5 7 30.00 1016 10 16 0.00 0.00
4:35 pm 16:35 Mostly Cloudy 81 27.4 76 24.2 83 83 S 6 9 30.00 1016 10 16 0.00 0.00
4:55 pm 16:55 Cloudy 81 27.4 75 24.1 82 82 SSW 6 9 30.00 1016 10 16 0.00 0.00
5:15 pm 17:15 Cloudy 83 28.2 75 24.1 78 78 SW 8 13 30.00 1016 10 16 0.00 0.00
5:35 pm 17:35 Cloudy 83 28.5 74 23.5 74 74 WSW 7 11 29.99 1016 10 16 0.00 0.00
5:55 pm 17:55 Cloudy 83 28.5 73 22.5 70 70 W 8 13 29.99 1016 10 16 0.00 0.00
6:15 pm 18:15 Mostly Cloudy 83 28.6 73 22.9 71 71 NW 7 11 29.99 1016 10 16 0.00 0.00
6:35 pm 18:35 Cloudy 82 27.5 74 23.5 79 79 N 6 9 30.00 1016 10 16 0.00 0.00
6:55 pm 18:55 Cloudy 81 27.3 74 23.6 80 80 N 6 9 30.00 1016 10 16 0.00 0.00
7:15 pm 19:15 Cloudy 80 26.9 75 24 84 84 NNE 6 9 29.99 1016 10 16 0.00 0.00
7:35 pm 19:35 Cloudy 80 26.9 75 24 84 84 N 6 9 30.00 1016 10 16 0.00 0.00
7:55 pm 19:55 Cloudy 81 27.1 75 24.1 84 84 NNE 5 7 30.01 1016 10 16 0.00 0.00
8:15 pm 20:15 Mostly Cloudy 79 26.1 74 23.2 84 84 N 9 15 30.01 1016 10 16 0.00 0.00
8:35 pm 20:35 Partly Cloudy 78 25.4 74 23.1 87 87 N 8 13 30.01 1016 10 16 0.00 0.00
8:55 pm 20:55 Clear 76 24.7 74 23.1 91 91 N 8 13 30.02 1017 10 16 0.00 0.00
9:15 pm 21:15 Clear 76 24.3 73 23 92 92 N 7 11 30.02 1017 10 16 0.00 0.00
9:35 pm 21:35 Clear 75 24 73 22.6 92 92 N 5 7 30.05 1017 10 16 0.00 0.00
9:55 pm 21:55 Clear 74 23.5 73 22.6 95 95 NNW 5 7 30.05 1018 10 16 0.00 0.00
10:15 pm 22:15 Partly Cloudy 74 23.4 73 22.8 96 96 N 5 7 30.06 1018 10 16 0.00 0.00
10:35 pm 22:35 Mostly Cloudy 74 23.3 73 22.9 98 98 NW 3 6 30.07 1018 10 16 0.00 0.00
10:55 pm 22:55 Cloudy 74 23.3 73 22.9 98 98 N 3 6 30.07 1018 10 16 0.00 0.00
11:15 pm 23:15 Cloudy 74 23.3 73 22.8 97 97 NNE 5 7 30.07 1018 10 16 0.00 0.00
11:35 pm 23:35 Cloudy with Light Rain 74 23.3 73 22.9 98 98 N 8 13 30.06 1018 10 16 0.00 0.00
11:55 pm 23:55 Partly Cloudy 73 22.8 73 23 N/A N 5 7 30.07 1018 10 16 0.00 0.00

Powered by AerisWeather